YO2LDK-13 Weather Reports


time (UTC)temp
F
wind
direction
speed
knots
gust
knots
rain 1hr
in
rain 24hr
in
rain mn
in
humidity
%
barometer
mb
20260503194020 50 54 0.0 0.0 0.00 0.00 0.00 58 1008.8
20260503193520 50 54 0.0 0.0 0.00 0.00 0.00 59 1009.1
20260503193020 51 54 0.0 0.0 0.00 0.00 0.00 59 1009.1
20260503192519 51 54 0.0 0.0 0.00 0.00 0.00 57 1009.1
20260503192020 51 54 0.0 0.0 0.00 0.00 0.00 57 1009.1
20260503191519 51 54 0.0 0.0 0.00 0.00 0.00 57 1008.8
20260503191019 51 54 0.0 0.0 0.00 0.00 0.00 56 1009.1
20260503190519 51 54 0.0 0.0 0.00 0.00 0.00 57 1009.1
20260503190019 52 54 0.0 0.0 0.00 0.00 0.00 56 1008.8
20260503185519 52 54 0.0 0.0 0.00 0.00 0.00 56 1008.8
20260503185019 52 54 0.0 0.0 0.00 0.00 0.00 56 1008.8
20260503184520 53 54 0.0 0.0 0.00 0.00 0.00 56 1008.8
20260503184020 53 54 0.0 0.0 0.00 0.00 0.00 58 1008.8
20260503183520 53 54 0.0 0.0 0.00 0.00 0.00 56 1008.8
20260503183020 54 54 0.0 0.0 0.00 0.00 0.00 54 1008.5
20260503182520 54 54 0.0 0.0 0.00 0.00 0.00 53 1008.5
20260503182019 55 54 0.0 0.0 0.00 0.00 0.00 54 1008.5
20260503181519 55 54 0.0 0.0 0.00 0.00 0.00 54 1008.5
20260503181020 56 54 0.0 0.0 0.00 0.00 0.00 52 1008.5
20260503180519 56 54 0.0 0.0 0.00 0.00 0.00 49 1008.5
20260503180019 57 54 0.0 0.0 0.00 0.00 0.00 49 1008.5
20260503175520 58 54 0.0 0.0 0.00 0.00 0.00 49 1008.5
20260503175019 58 54 0.0 0.0 0.00 0.00 0.00 47 1008.5
20260503174519 59 54 0.0 0.0 0.00 0.00 0.00 45 1008.5
20260503174020 60 54 0.0 0.0 0.00 0.00 0.00 43 1008.5
20260503173519 61 54 0.0 0.0 0.00 0.00 0.00 42 1008.5
20260503173019 61 54 0.0 0.0 0.00 0.00 0.00 41 1008.5
20260503172519 62 54 0.0 0.0 0.00 0.00 0.00 39 1008.5
20260503172020 63 54 0.0 0.0 0.00 0.00 0.00 40 1008.5
20260503171519 63 54 0.0 0.0 0.00 0.00 0.00 37 1008.5
20260503171019 64 54 0.0 0.0 0.00 0.00 0.00 36 1008.1
20260503170519 64 54 0.0 0.0 0.00 0.00 0.00 36 1008.5
20260503150520 70 288 0.0 0.0 0.00 0.00 0.00 27 1008.8
20260503131019 69 264 1.7 1.7 0.00 0.00 0.00 35 1009.8
20260503130519 68 246 0.0 0.0 0.00 0.00 0.00 31 1009.8
20260503110519 67 252 0.0 0.0 0.00 0.00 0.00 34 1011.2
20260503081519 60 293 1.7 1.7 0.00 0.00 0.00 45 1011.9
20260503081019 60 311 5.2 5.2 0.00 0.00 0.00 46 1012.2
20260503080519 60 294 1.7 1.7 0.00 0.00 0.00 46 1012.2
20260503072520 58 283 0.0 0.0 0.00 0.00 0.00 51 1012.2
20260503072019 57 270 1.7 1.7 0.00 0.00 0.00 52 1012.2
20260503071520 57 293 3.5 3.5 0.00 0.00 0.00 51 1012.2
20260503071019 57 264 0.9 0.9 0.00 0.00 0.00 54 1012.2
20260503070519 57 312 2.6 3.5 0.00 0.00 0.00 53 1012.2
20260503055020 52 294 1.7 1.7 0.00 0.00 0.00 67 1011.9
20260503054520 51 354 1.7 1.7 0.00 0.00 0.00 68 1011.9
20260503054019 51 282 1.7 1.7 0.00 0.00 0.00 68 1011.9
20260503053519 51 300 2.6 2.6 0.00 0.00 0.00 69 1011.9
20260503053019 50 276 1.7 1.7 0.00 0.00 0.00 71 1011.5
20260503052519 49 276 0.0 0.0 0.00 0.00 0.00 71 1011.9
20260503052019 49 300 1.7 1.7 0.00 0.00 0.00 74 1011.5
20260503051519 48 276 0.0 0.0 0.00 0.00 0.00 75 1011.9
20260503051019 47 288 0.0 0.0 0.00 0.00 0.00 76 1011.5
20260503050519 46 288 0.9 0.9 0.00 0.00 0.00 77 1011.5
20260503050019 45 294 2.6 2.6 0.00 0.00 0.00 79 1011.5
20260503045519 44 276 0.0 0.0 0.00 0.00 0.00 80 1011.5
20260503045019 44 294 0.0 0.0 0.00 0.00 0.00 81 1011.5
20260503044519 43 306 0.0 0.0 0.00 0.00 0.00 82 1011.2
20260503044019 42 306 0.0 0.0 0.00 0.00 0.00 83 1011.5
20260503043519 41 306 0.0 0.0 0.00 0.00 0.00 85 1011.5
20260503043020 40 306 0.0 0.0 0.00 0.00 0.00 86 1011.5
20260503042527 40 306 0.0 0.0 0.00 0.00 0.00 87 1011.5
20260503042020 39 306 0.0 0.0 0.00 0.00 0.00 88 1011.2
20260503041519 39 306 0.0 0.0 0.00 0.00 0.00 88 1011.5
20260503041019 38 306 0.0 0.0 0.00 0.00 0.00 89 1011.5
20260503040519 38 306 0.0 0.0 0.00 0.00 0.00 90 1011.2
20260503040020 38 306 0.0 0.0 0.00 0.00 0.00 90 1010.8
20260503035520 38 306 0.0 0.0 0.00 0.00 0.00 90 1011.2
20260503035019 38 306 0.0 0.0 0.00 0.00 0.00 90 1011.2
20260503034519 38 306 0.0 0.0 0.00 0.00 0.00 89 1011.2
20260503034020 38 306 0.0 0.0 0.00 0.00 0.00 89 1011.2
20260503033519 38 306 0.0 0.0 0.00 0.00 0.00 89 1011.2
20260503033019 38 306 0.0 0.0 0.00 0.00 0.00 89 1011.2
20260503032519 38 306 0.0 0.0 0.00 0.00 0.00 89 1010.8
20260503032019 38 306 0.0 0.0 0.00 0.00 0.00 90 1010.8
20260503031519 38 306 0.0 0.0 0.00 0.00 0.00 90 1010.8
20260503031019 38 306 0.0 0.0 0.00 0.00 0.00 90 1010.8
20260503030519 38 306 0.0 0.0 0.00 0.00 0.00 90 1010.8
20260503030019 38 306 0.0 0.0 0.00 0.00 0.00 91 1010.8
20260503025520 38 306 0.0 0.0 0.00 0.00 0.00 91 1010.5
20260503025019 38 306 0.0 0.0 0.00 0.00 0.00 90 1010.8
20260503024519 38 306 0.0 0.0 0.00 0.00 0.00 90 1010.8
20260503024027 38 306 0.0 0.0 0.00 0.00 0.00 89 1010.5
20260503023519 39 306 0.0 0.0 0.00 0.00 0.00 89 1010.5
20260503023019 39 306 0.0 0.0 0.00 0.00 0.00 88 1010.5
20260503022519 39 306 0.0 0.0 0.00 0.00 0.00 88 1010.5
20260503022022 40 306 0.0 0.0 0.00 0.00 0.00 87 1010.5
20260503021519 40 306 0.0 0.0 0.00 0.00 0.00 86 1010.5
20260503021019 40 306 0.0 0.0 0.00 0.00 0.00 85 1010.5
20260503020520 40 306 0.0 0.0 0.00 0.00 0.00 87 1010.5
20260503020020 41 306 0.0 0.0 0.00 0.00 0.00 86 1010.5
20260503015519 41 306 0.0 0.0 0.00 0.00 0.00 85 1010.2
20260503015019 42 306 0.0 0.0 0.00 0.00 0.00 84 1010.5
20260503014520 42 306 0.0 0.0 0.00 0.00 0.00 83 1010.5
20260503014020 41 306 0.0 0.0 0.00 0.00 0.00 84 1010.2
20260503013519 41 306 0.0 0.0 0.00 0.00 0.00 85 1010.2
20260503013019 41 306 0.0 0.0 0.00 0.00 0.00 84 1010.2
20260503012519 42 306 0.0 0.0 0.00 0.00 0.00 83 1010.2
20260503012020 43 306 0.0 0.0 0.00 0.00 0.00 81 1010.2
20260503011519 42 306 0.0 0.0 0.00 0.00 0.00 81 1009.8
20260503011019 42 306 0.0 0.0 0.00 0.00 0.00 81 1009.8
20260503010519 43 306 0.0 0.0 0.00 0.00 0.00 80 1009.8
20260503010019 43 306 0.0 0.0 0.00 0.00 0.00 79 1009.8
20260503005519 43 306 0.0 0.0 0.00 0.00 0.00 79 1009.8
20260503005019 44 312 0.0 0.0 0.00 0.00 0.00 78 1009.8
20260503004519 44 312 0.0 0.0 0.00 0.00 0.00 77 1009.8
20260503004019 44 288 0.0 0.0 0.00 0.00 0.00 76 1010.2
20260503003519 44 288 0.0 0.0 0.00 0.00 0.00 77 1009.8
20260503003019 44 288 0.0 0.0 0.00 0.00 0.00 77 1009.8
20260503002519 44 288 0.0 0.0 0.00 0.00 0.00 76 1009.8
20260503002019 44 288 0.0 0.0 0.00 0.00 0.00 76 1009.8
20260503001519 44 288 0.9 0.9 0.00 0.00 0.00 76 1010.2
20260503001019 44 282 0.0 0.0 0.00 0.00 0.00 75 1010.2
20260503000519 44 282 0.0 0.0 0.00 0.00 0.00 75 1009.8
20260503000019 45 282 0.0 0.0 0.00 0.00 0.00 74 1010.2
20260502235519 45 282 0.0 0.0 0.00 0.00 0.00 73 1009.8
20260502235019 45 282 0.0 0.0 0.00 0.00 0.00 72 1009.8
20260502234520 45 282 0.0 0.0 0.00 0.00 0.00 70 1009.8
20260502234019 45 282 0.0 0.0 0.00 0.00 0.00 69 1009.8
20260502233519 45 282 0.0 0.0 0.00 0.00 0.00 70 1010.2
20260502233019 45 282 0.0 0.0 0.00 0.00 0.00 70 1010.2
20260502232520 46 282 0.0 0.0 0.00 0.00 0.00 68 1010.2
20260502232019 46 282 0.0 0.0 0.00 0.00 0.00 67 1009.8
20260502231519 47 282 0.0 0.0 0.00 0.00 0.00 67 1009.8
20260502231019 47 282 0.0 0.0 0.00 0.00 0.00 66 1010.2
20260502230519 47 282 0.0 0.0 0.00 0.00 0.00 65 1009.8
20260502230019 47 282 0.0 0.0 0.00 0.00 0.00 64 1010.2
20260502225519 46 282 0.0 0.0 0.00 0.00 0.00 65 1010.2
20260502225019 46 282 0.0 0.0 0.00 0.00 0.00 66 1010.2
20260502224519 46 282 0.0 0.0 0.00 0.00 0.00 67 1010.2
20260502224019 45 282 0.0 0.0 0.00 0.00 0.00 68 1009.5
20260502223519 45 66 0.0 0.0 0.00 0.00 0.00 72 1009.8
20260502223019 45 66 0.0 0.0 0.00 0.00 0.00 71 1009.5
20260502222519 45 66 0.0 0.0 0.00 0.00 0.00 72 1009.5
20260502222019 46 66 0.0 0.0 0.00 0.00 0.00 72 1009.8
20260502221519 46 66 0.0 0.0 0.00 0.00 0.00 72 1009.5
20260502221019 46 66 0.0 0.0 0.00 0.00 0.00 72 1009.5
20260502220520 46 66 0.0 0.0 0.00 0.00 0.00 71 1009.5
20260502220020 46 66 0.0 0.0 0.00 0.00 0.00 70 1009.5
20260502215519 46 66 0.0 0.0 0.00 0.00 0.00 70 1009.5
20260502215020 46 66 0.0 0.0 0.00 0.00 0.00 70 1009.5
20260502214519 46 66 0.0 0.0 0.00 0.00 0.00 69 1009.5
20260502214020 47 66 0.0 0.0 0.00 0.00 0.00 68 1009.5
20260502213519 47 66 0.0 0.0 0.00 0.00 0.00 67 1009.5
20260502213019 47 66 0.0 0.0 0.00 0.00 0.00 67 1009.1
20260502212519 47 66 0.0 0.0 0.00 0.00 0.00 66 1009.1
20260502212019 47 66 0.0 0.0 0.00 0.00 0.00 67 1009.5
20260502211519 47 66 0.0 0.0 0.00 0.00 0.00 66 1009.5
20260502211019 48 66 0.0 0.0 0.00 0.00 0.00 65 1009.1
20260502210519 48 66 0.0 0.0 0.00 0.00 0.00 66 1009.5
20260502210019 49 66 0.0 0.0 0.00 0.00 0.00 64 1009.5
20260502205519 49 66 0.0 0.0 0.00 0.00 0.00 63 1009.5
20260502205019 49 66 0.0 0.0 0.00 0.00 0.00 62 1009.1
20260502204520 50 66 0.0 0.0 0.00 0.00 0.00 61 1009.1
20260502204019 50 66 0.0 0.0 0.00 0.00 0.00 60 1009.5
20260502203519 50 66 0.0 0.0 0.00 0.00 0.00 59 1009.5
20260502203019 51 66 0.0 0.0 0.00 0.00 0.00 58 1009.5
20260502202519 51 66 0.0 0.0 0.00 0.00 0.00 56 1009.5
20260502202019 52 66 0.0 0.0 0.00 0.00 0.00 56 1009.5
20260502201520 52 66 0.0 0.0 0.00 0.00 0.00 54 1009.5
20260502201020 53 66 0.0 0.0 0.00 0.00 0.00 53 1009.5
20260502200519 53 66 0.0 0.0 0.00 0.00 0.00 52 1009.5
20260502200019 54 66 0.0 0.0 0.00 0.00 0.00 51 1009.5
20260502195519 55 66 0.0 0.0 0.00 0.00 0.00 51 1009.5
20260502195019 55 66 0.0 0.0 0.00 0.00 0.00 50 1009.5
20260502194520 56 66 0.0 0.0 0.00 0.00 0.00 48 1009.1